Weather reports worldwide

Advertisment
Shoeburyness Landwick, United Kingdom (3693): temperature & dewpoint: 19.11.2017 09:00:00 - 25.11.2017 09:00:00 (GMT)Shoeburyness Landwick, United Kingdom (3693): wind speed & gusts: 19.11.2017 09:00:00 - 25.11.2017 09:00:00 (GMT)Shoeburyness Landwick, United Kingdom (3693): wind direction: 19.11.2017 09:00:00 - 25.11.2017 09:00:00 (GMT)Shoeburyness Landwick, United Kingdom (3693): reduced air pressure: 19.11.2017 09:00:00 - 25.11.2017 09:00:00 (GMT)Shoeburyness Landwick, United Kingdom (3693): visibility: 19.11.2017 09:00:00 - 25.11.2017 09:00:00 (GMT)Shoeburyness Landwick, United Kingdom (3693): sunshine duration: 19.11.2017 09:00:00 - 25.11.2017 09:00:00 (GMT)Shoeburyness Landwick, United Kingdom (3693): precipitation: 19.11.2017 09:00:00 - 25.11.2017 09:00:00 (GMT)
Date & Time tt [°C] td [°C] ff [km/h] ff [kn] fx [km/h] fx [kn] dd ppp [hPa] vv [km] sd [min] rr [mm]
25.11.2017 09:00:00 2,3 0,4 15 8 - - W 1014,4 40 0 0,0
25.11.2017 08:00:00 1,6 0,2 15 8 - - WNW 1013,8 30 0 -
25.11.2017 07:00:00 0,9 -0,1 15 8 - - WNW 1013,0 25 0 0,0
25.11.2017 06:00:00 0,4 -0,6 9 5 - - W 1012,4 24 0 0,0
25.11.2017 05:00:00 0,1 -0,9 9 5 - - W 1012,2 19 0 0,0
25.11.2017 04:00:00 -1,2 -1,7 8 4 - - W 1012,0 15 0 0,0
25.11.2017 03:00:00 -1,5 -2,6 8 4 - - WNW 1012,1 10 0 0,0
25.11.2017 02:00:00 -1,5 -3,2 5 3 - - W 1012,3 12 0 0,0
25.11.2017 01:00:00 -0,4 -0,8 8 4 - - W 1012,2 12 0 0,0
25.11.2017 00:00:00 -1,1 -1,5 8 4 - - WNW 1012,8 7 - 0,0
24.11.2017 23:00:00 -0,8 -1,2 8 4 - - WNW 1012,8 6 0 0,0
24.11.2017 22:00:00 0,1 -0,2 5 3 - - WNW 1012,8 8 0 0,0
24.11.2017 21:00:00 -0,2 -0,6 8 4 - - WNW 1012,8 6 0 0,0
24.11.2017 20:00:00 0,0 -1,1 5 3 - - WSW 1012,8 11 0 0,0
24.11.2017 19:00:00 2,7 1,8 5 3 - - WNW 1012,8 12 0 0,0
24.11.2017 18:00:00 2,9 1,3 8 4 - - NW 1012,4 17 0 0,0
24.11.2017 17:00:00 4,5 1,8 5 3 - - NW 1012,4 28 0 0,0
24.11.2017 16:00:00 5,8 2,5 5 3 - - NW 1012,1 35 0 0,0
24.11.2017 15:00:00 7,0 2,6 5 3 - - NW 1012,0 35 0 0,0
24.11.2017 14:00:00 7,4 2,3 9 5 - - NW 1011,8 40 0 0,0
24.11.2017 13:00:00 7,7 2,7 9 5 - - NW 1011,8 45 0 0,0
24.11.2017 12:00:00 7,7 3,0 9 5 - - NW 1011,8 45 0 0,0
24.11.2017 11:00:00 7,7 3,6 11 6 - - NNW 1011,5 30 0 0,0
24.11.2017 10:00:00 6,6 3,4 13 7 - - NNW 1011,0 30 48 0,0
24.11.2017 09:00:00 6,3 4,2 9 5 - - NW 1009,8 30 12 0,0
24.11.2017 08:00:00 6,0 3,6 5 3 - - W 1009,3 45 0 -
24.11.2017 07:00:00 5,6 3,5 9 5 - - WNW 1008,7 45 0 0,0
24.11.2017 06:00:00 6,4 3,8 8 4 - - NW 1007,7 35 0 0,0
24.11.2017 05:00:00 7,4 4,3 8 4 - - W 1007,0 26 0 0,0
24.11.2017 04:00:00 7,3 4,2 5 3 - - WSW 1006,3 30 0 0,0
24.11.2017 03:00:00 7,4 4,3 4 2 - - W 1006,1 24 0 0,0
24.11.2017 02:00:00 8,3 4,4 9 5 - - WSW 1006,0 21 0 0,0
24.11.2017 01:00:00 8,5 4,6 15 8 - - SW 1006,0 23 0 0,0
24.11.2017 00:00:00 8,7 4,2 15 8 - - SW 1005,9 24 - 0,0
23.11.2017 23:00:00 9,2 4,2 16 9 - - SW 1006,3 21 0 0,0
23.11.2017 22:00:00 8,9 4,1 15 8 - - SW 1006,7 17 0 0,0
23.11.2017 21:00:00 9,1 4,0 11 6 - - WSW 1006,5 18 0 0,0
23.11.2017 20:00:00 9,4 3,6 16 9 - - WSW 1006,2 19 0 0,0
23.11.2017 19:00:00 9,6 3,3 16 9 - - WSW 1005,6 23 0 0,0
23.11.2017 18:00:00 10,0 3,3 21 11 - - WSW 1004,8 29 0 0,0
23.11.2017 17:00:00 10,2 3,0 22 12 - - WSW 1003,7 30 0 0,0
23.11.2017 16:00:00 10,6 2,3 22 12 - - WSW 1003,0 26 36 0,0
23.11.2017 15:00:00 11,4 2,3 28 15 48 26 WSW 1002,1 29 60 0,0
23.11.2017 14:00:00 11,5 2,6 26 14 48 26 WSW 1001,1 40 60 0,0
23.11.2017 13:00:00 11,3 2,8 29 16 48 26 WSW 1000,5 40 60 0,0
23.11.2017 12:00:00 10,9 3,9 28 15 50 27 WSW 999,9 45 60 0,0
23.11.2017 11:00:00 10,4 2,8 26 14 52 28 W 999,1 50 60 0,0
23.11.2017 10:00:00 10,6 5,0 22 12 50 27 W 997,5 50 6 0,0
23.11.2017 09:00:00 11,1 6,8 31 17 52 28 W 994,9 50 6 0,8
23.11.2017 08:00:00 12,7 10,5 22 12 - - SW 992,3 20 0 0,0
23.11.2017 07:00:00 13,3 10,7 28 15 - - WSW 990,6 20 0 0,0
23.11.2017 06:00:00 13,0 11,8 22 12 - - SW 988,8 29 0 0,2
23.11.2017 05:00:00 12,4 11,3 39 21 65 35 SSW 987,7 8 0 1,0
23.11.2017 04:00:00 13,7 10,1 52 28 74 40 SSW 987,3 14 0 0,0
23.11.2017 03:00:00 14,3 8,7 48 26 67 36 SSW 988,0 15 0 0,0
23.11.2017 02:00:00 13,1 8,9 37 20 70 38 S 989,1 18 0 0,0
23.11.2017 01:00:00 14,9 8,7 44 24 67 36 SSW 990,0 15 0 -
23.11.2017 00:00:00 15,1 8,7 42 23 72 39 SSW 990,7 28 - 0,0
22.11.2017 23:00:00 14,5 8,8 39 21 63 34 SSW 991,5 26 0 0,0
22.11.2017 22:00:00 15,1 8,8 42 23 61 33 SSW 992,3 20 0 0,0
22.11.2017 21:00:00 14,6 8,2 44 24 61 33 SSW 992,4 23 0 0,0
22.11.2017 20:00:00 13,4 6,9 29 16 - - SSW 993,2 29 0 0,0
22.11.2017 19:00:00 12,5 7,0 35 19 54 29 SSW 994,0 25 0 0,0
22.11.2017 18:00:00 12,6 7,2 39 21 65 35 SSW 995,0 28 0 0,0
22.11.2017 17:00:00 12,2 7,2 37 20 54 29 SSW 995,8 23 0 0,0
22.11.2017 16:00:00 12,4 7,2 34 18 46 25 SSW 996,8 20 24 0,0
22.11.2017 15:00:00 13,6 7,9 35 19 52 28 SSW 997,5 24 60 0,0
22.11.2017 14:00:00 14,3 8,2 35 19 50 27 SSW 998,0 23 60 0,0
22.11.2017 13:00:00 15,1 8,2 35 19 50 27 SW 999,1 21 60 0,0
22.11.2017 12:00:00 15,0 8,6 34 18 55 30 SW 999,8 24 60 0,0
22.11.2017 11:00:00 15,0 8,2 39 21 57 31 SW 1000,6 35 60 0,0
22.11.2017 10:00:00 14,3 10,4 31 17 - - SW 1001,4 18 48 0,0
22.11.2017 09:00:00 12,9 10,2 28 15 46 25 SW 1001,6 15 0 0,0
22.11.2017 08:00:00 12,6 9,6 34 18 46 25 SW 1001,8 17 0 0,0
22.11.2017 07:00:00 13,2 9,9 26 14 48 26 SW 1001,9 21 0 0,0
22.11.2017 06:00:00 13,5 10,1 24 13 - - SW 1002,0 19 0 0,0
22.11.2017 05:00:00 13,5 9,8 29 16 48 26 SW 1002,5 19 0 0,0
22.11.2017 04:00:00 13,7 10,1 26 14 - - SW 1002,9 20 0 0,0
22.11.2017 03:00:00 13,6 9,9 26 14 - - WSW 1003,2 22 0 0,0
22.11.2017 02:00:00 13,8 10,2 26 14 - - WSW 1003,8 20 0 0,0
22.11.2017 01:00:00 13,5 9,9 24 13 - - WSW 1004,4 22 0 0,0
22.11.2017 00:00:00 13,7 10,0 26 14 - - WSW 1004,9 18 - 0,0
21.11.2017 23:00:00 13,7 10,1 24 13 - - WSW 1005,2 20 0 -
21.11.2017 22:00:00 13,4 10,1 24 13 - - SW 1005,6 18 0 0,0
21.11.2017 21:00:00 13,3 10,6 29 16 - - SW 1005,8 17 0 0,0
21.11.2017 20:00:00 12,9 10,2 22 12 - - SW 1006,5 17 0 0,0
21.11.2017 19:00:00 12,5 10,1 21 11 - - SW 1007,3 20 0 0,0
21.11.2017 18:00:00 12,7 9,9 18 10 - - SW 1007,7 22 0 0,0
21.11.2017 17:00:00 12,5 9,2 18 10 - - SW 1008,2 18 0 0,0
21.11.2017 16:00:00 12,7 8,9 16 9 - - WSW 1008,6 22 0 0,0
21.11.2017 15:00:00 13,0 8,9 21 11 - - WSW 1008,7 20 0 0,0
21.11.2017 14:00:00 13,4 8,9 21 11 - - WSW 1009,2 25 0 0,0
21.11.2017 13:00:00 13,9 9,1 26 14 - - WSW 1009,9 28 18 0,0
21.11.2017 12:00:00 13,5 10,1 18 10 - - WSW 1010,8 26 36 0,0
21.11.2017 11:00:00 12,9 9,7 22 12 - - WSW 1011,3 21 6 0,0
21.11.2017 10:00:00 12,4 9,8 21 11 - - WSW 1011,7 19 0 -
21.11.2017 09:00:00 11,9 9,8 21 11 - - WSW 1011,6 19 0 0,0
21.11.2017 08:00:00 11,8 9,8 18 10 - - WSW 1011,5 29 0 0,0
21.11.2017 07:00:00 11,9 10,2 18 10 - - SW 1011,2 22 0 0,0
21.11.2017 06:00:00 12,3 10,7 16 9 - - WSW 1011,2 23 0 0,0
21.11.2017 05:00:00 12,8 10,8 16 9 - - WSW 1011,6 35 0 0,0
21.11.2017 04:00:00 12,6 10,9 21 11 - - W 1011,6 29 0 0,0
21.11.2017 03:00:00 12,2 11,1 16 9 - - WSW 1012,0 28 0 0,2
21.11.2017 02:00:00 12,0 11,4 16 9 - - W 1012,3 15 0 0,0
21.11.2017 01:00:00 12,6 11,0 22 12 - - W 1012,3 13 0 0,0
21.11.2017 00:00:00 12,6 11,0 18 10 - - W 1012,6 21 - 0,0
20.11.2017 23:00:00 12,6 11,0 16 9 - - WSW 1012,7 22 0 0,0
20.11.2017 22:00:00 12,7 11,2 18 10 - - WSW 1012,5 22 0 0,0
20.11.2017 21:00:00 12,7 11,5 15 8 - - W 1012,6 18 0 0,0
20.11.2017 20:00:00 12,9 11,2 21 11 - - W 1012,6 35 0 0,0
20.11.2017 19:00:00 12,5 11,2 22 12 - - W 1012,4 7 0 0,0
20.11.2017 18:00:00 12,3 10,9 21 11 - - W 1012,4 35 0 0,0
20.11.2017 17:00:00 12,3 10,4 21 11 - - WSW 1012,1 29 0 0,0
20.11.2017 16:00:00 12,0 10,3 18 10 - - WSW 1012,3 40 0 0,0
20.11.2017 15:00:00 11,6 10,4 18 10 - - WSW 1012,8 27 0 0,0
20.11.2017 14:00:00 12,4 9,7 28 15 46 25 W 1012,9 11 0 0,0
20.11.2017 13:00:00 12,4 9,3 24 13 - - W 1013,4 45 0 0,0
20.11.2017 12:00:00 11,9 9,2 22 12 - - WSW 1013,9 45 0 0,0
20.11.2017 11:00:00 11,5 9,0 24 13 - - WSW 1014,6 35 0 0,0
20.11.2017 10:00:00 10,5 8,6 24 13 - - WSW 1015,0 30 0 0,0
20.11.2017 09:00:00 9,5 8,5 24 13 - - SW 1015,5 29 0 0,0
20.11.2017 08:00:00 8,8 8,4 21 11 - - SW 1016,3 13 0 0,2
20.11.2017 07:00:00 8,0 7,8 13 7 - - SW 1017,2 7 0 0,4
20.11.2017 06:00:00 7,1 6,7 15 8 - - SW 1017,8 10 0 0,8
20.11.2017 05:00:00 7,0 5,4 11 6 - - WSW 1018,6 6 0 0,0
20.11.2017 04:00:00 7,6 4,6 21 11 - - SW 1018,9 35 0 0,0
20.11.2017 03:00:00 7,3 3,5 13 7 - - SW 1019,7 50 0 0,0
20.11.2017 02:00:00 6,9 3,5 11 6 - - SW 1020,8 40 0 0,0
20.11.2017 01:00:00 5,6 3,1 8 4 - - SW 1021,8 26 0 0,0
20.11.2017 00:00:00 5,5 2,9 9 5 - - SW 1022,9 30 - 0,0
19.11.2017 23:00:00 4,4 2,7 8 4 - - SW 1023,1 19 0 0,0
19.11.2017 22:00:00 4,8 2,5 9 5 - - WSW 1023,7 22 0 0,0
19.11.2017 21:00:00 5,1 2,4 9 5 - - WSW 1023,7 15 0 0,0
19.11.2017 20:00:00 5,8 2,4 9 5 - - WSW 1023,5 26 0 0,0
19.11.2017 19:00:00 5,7 1,3 8 4 - - WSW 1023,5 21 0 0,0
19.11.2017 18:00:00 5,8 1,1 8 4 - - W 1023,6 23 0 0,0
19.11.2017 17:00:00 6,0 1,2 8 4 - - W 1023,9 30 0 0,0
19.11.2017 16:00:00 6,1 1,4 9 5 - - W 1023,6 40 0 0,0
19.11.2017 15:00:00 7,4 0,9 9 5 - - WNW 1023,5 40 54 0,0
19.11.2017 14:00:00 7,9 1,7 13 7 - - WNW 1023,4 26 60 0,0
19.11.2017 13:00:00 7,3 1,5 15 8 - - WNW 1023,7 50 60 0,0
19.11.2017 12:00:00 6,6 1,8 13 7 - - WNW 1023,8 22 60 0,0
19.11.2017 11:00:00 5,6 1,6 15 8 - - NW 1023,6 40 60 0,0
19.11.2017 10:00:00 4,6 1,0 13 7 - - WNW 1023,4 30 60 0,0
19.11.2017 09:00:00 3,3 0,7 8 4 - - W 1023,2 24 60 0,0

tt = temperature
td = dewpoint
ff = wind speed
fx = gusts
dd = wind direction
ppp = reduced air pressure
vv = visibility
sd = sunshine duration
rr = precipitation

Next stations